DW3793 Weather Reports


Display with metric or nautical units.
time (UTC)temp
F
wind
direction
speed
MPH
gust
MPH
rain 1hr
in
rain 24hr
in
rain mn
in
humidity
%
barometer
mb
20260905031553 53 97 0.0 1.0 0.00 0.18 0.00 70 1015.2
20260905030015 53 101 0.0 0.0 0.00 0.18 0.00 70 1015.1
20260905024516 54 128 0.0 0.0 0.00 0.24 0.00 70 1015.1
20260905023014 55 118 0.0 1.0 0.00 0.24 0.00 70 1015.0
20260905021510 57 150 0.0 1.0 0.00 0.24 0.00 67 1014.9
20260905020012 58 294 0.0 0.0 0.00 0.24 0.00 64 1014.9
20260905014510 60 293 0.0 0.0 0.00 0.31 0.00 59 1014.8
20260905013041 61 293 0.0 0.0 0.00 0.31 0.00 53 1014.7
20260905011548 63 293 0.0 0.0 0.00 0.31 0.00 48 1014.6
20260905010037 64 266 0.0 1.0 0.00 0.31 0.00 47 1014.5
20260905004539 65 117 0.0 1.0 0.00 0.35 0.00 49 1014.4
20260905003036 66 229 0.0 1.0 0.00 0.35 0.00 49 1014.5
20260905001539 64 299 0.0 1.0 0.00 0.35 0.00 51 1014.4
20260905000041 64 319 0.0 6.0 0.00 0.35 0.00 53 1014.5
20260904234537 65 347 0.0 4.0 0.00 0.39 0.00 53 1014.4
20260904233032 65 325 0.0 8.0 0.00 0.39 0.00 51 1014.5
20260904231535 63 18 1.0 4.0 0.00 0.39 0.00 55 1014.6
20260904230049 65 245 0.0 2.0 0.00 0.39 0.00 56 1014.6
20260904224527 65 211 0.0 4.0 0.00 0.43 0.00 49 1014.6
20260904223027 64 245 0.0 3.0 0.00 0.43 0.00 49 1014.6
20260904221526 64 267 0.0 3.0 0.00 0.43 0.00 50 1014.5
20260904220026 66 275 0.0 3.0 0.00 0.43 0.00 47 1014.6
20260904214521 67 226 0.0 5.0 0.00 0.43 0.00 49 1014.7
20260904213021 67 267 0.0 5.0 0.00 0.43 0.00 49 1014.7
20260904211519 65 213 1.0 4.0 0.00 0.43 0.00 53 1014.7
20260904210020 63 238 0.0 6.0 0.00 0.43 0.00 56 1014.7
20260904204503 63 69 0.0 2.0 0.00 0.43 0.00 57 1014.8
20260904203102 61 26 0.0 3.0 0.00 0.43 0.00 62 1014.8
20260904201601 60 331 1.0 5.0 0.00 0.43 0.00 66 1014.9
20260904194552 58 11 1.0 5.0 0.00 0.43 0.00 67 1015.2
20260904193050 59 30 0.0 4.0 0.00 0.43 0.00 68 1015.4
20260904191547 57 77 0.0 1.0 0.00 0.43 0.00 71 1015.6
20260904190046 57 131 0.0 2.0 0.00 0.43 0.00 72 1015.5
20260904184603 55 214 0.0 1.0 0.00 0.43 0.00 74 1015.5
20260904183041 54 325 0.0 2.0 0.00 0.43 0.00 76 1015.6
20260904181539 55 244 0.0 1.0 0.00 0.43 0.00 75 1015.7
20260904180035 53 66 0.0 3.0 0.00 0.43 0.00 78 1015.7
20260904174600 52 209 0.0 1.0 0.00 0.43 0.00 80 1015.7
20260904173027 51 61 0.0 2.0 0.00 0.43 0.00 85 1015.7
20260904171527 50 348 0.0 1.0 0.00 0.43 0.00 83 1015.7
20260904170039 50 38 0.0 3.0 0.00 0.43 0.00 84 1015.7
20260904164518 50 311 0.0 2.0 0.00 0.43 0.00 88 1015.5
20260904163015 48 336 0.0 0.0 0.00 0.43 0.00 86 1015.5
20260904161513 47 50 0.0 0.0 0.00 0.43 0.00 90 1015.3
20260904160008 46 57 0.0 2.0 0.00 0.43 0.00 92 1015.2
20260904154536 46 321 0.0 1.0 0.00 0.43 0.00 92 1015.2
20260904153034 46 336 0.0 1.0 0.00 0.43 0.00 92 1014.9
20260904151529 45 106 0.0 1.0 0.00 0.43 0.00 94 1014.9
20260904150032 44 133 0.0 0.0 0.00 0.43 0.00 98 1014.9
20260904144519 42 115 0.0 1.0 0.00 0.43 0.00 98 1015.0
20260904143017 41 138 0.0 0.0 0.00 0.43 0.00 98 1014.9
20260904141515 38 148 0.0 0.0 0.00 0.43 0.00 98 1014.7
20260904140011 38 148 0.0 0.0 0.00 0.43 0.00 98 1014.5
20260904134509 38 130 0.0 1.0 0.00 0.43 0.00 98 1014.3
20260904133008 38 111 0.0 0.0 0.00 0.43 0.00 98 1014.1
20260904131503 38 128 0.0 0.0 0.00 0.43 0.00 98 1014.0
20260904130001 38 139 0.0 0.0 0.00 0.43 0.00 98 1013.8
20260904124600 39 139 0.0 1.0 0.00 0.44 0.00 98 1013.6
20260904123057 39 83 0.0 1.0 0.00 0.44 0.00 98 1013.5
20260904121552 40 148 0.0 0.0 0.00 0.44 0.00 98 1013.4
20260904120106 40 113 0.0 0.0 0.00 0.44 0.00 98 1013.3
20260904114550 41 146 0.0 0.0 0.00 0.61 0.00 98 1013.5
20260904113048 40 67 0.0 1.0 0.00 0.61 0.00 98 1013.0
20260904111545 40 63 0.0 0.0 0.00 0.61 0.00 98 1013.0
20260904110046 41 63 0.0 0.0 0.00 0.61 0.00 98 1012.9
20260904104545 41 61 0.0 0.0 0.00 0.74 0.00 98 1013.1
20260904103044 41 69 0.0 0.0 0.00 0.74 0.00 98 1013.2
20260904101543 41 133 0.0 0.0 0.00 0.74 0.00 98 1012.8
20260904100044 41 132 0.0 0.0 0.00 0.74 0.00 98 1012.6
20260904094539 41 183 0.0 1.0 0.00 0.74 0.00 98 1013.1
20260904093054 40 143 0.0 0.0 0.00 0.74 0.00 98 1012.8
20260904091535 40 137 0.0 1.0 0.00 0.74 0.00 98 1012.8
20260904090003 41 133 0.0 0.0 0.00 0.74 0.00 98 1012.6
20260904084502 41 128 0.0 0.0 0.00 0.74 0.00 98 1012.3
20260904083031 41 118 0.0 1.0 0.00 0.74 0.00 98 1012.3
20260904081529 41 151 0.0 0.0 0.00 0.74 0.00 98 1012.0
20260904080026 41 118 0.0 0.0 0.00 0.74 0.00 98 1012.3
20260904074524 41 118 0.0 0.0 0.00 0.77 0.74 97 1012.2
20260904073045 42 117 0.0 0.0 0.00 0.77 0.74 97 1012.5
20260904071519 43 117 0.0 0.0 0.00 0.77 0.74 97 1012.2
20260904070017 43 117 0.0 0.0 0.00 0.77 0.74 97 1012.2
20260904064518 43 134 0.0 1.0 0.00 0.81 0.74 97 1012.3
20260904063013 44 133 0.0 1.0 0.00 0.81 0.74 97 1012.2
20260904061513 44 13 0.0 0.0 0.00 0.81 0.74 97 1012.0
20260904060010 44 336 0.0 1.0 0.00 0.81 0.74 97 1012.2
20260904054512 44 325 0.0 2.0 0.01 0.85 0.74 97 1011.6
20260904053008 43 154 0.0 0.0 0.03 0.85 0.74 97 1012.1
20260904051510 43 153 0.0 0.0 0.05 0.85 0.74 96 1011.3
20260904050005 43 107 0.0 2.0 0.08 0.85 0.74 95 1011.5
20260904044507 44 144 0.0 2.0 0.11 0.87 0.73 95 1012.1
20260904043003 44 150 0.0 1.0 0.11 0.85 0.71 96 1012.7
20260904041501 44 115 0.0 3.0 0.11 0.83 0.69 95 1012.7
20260904040058 45 124 0.0 1.0 0.09 0.80 0.66 95 1012.7
20260904034602 45 159 0.0 1.0 0.06 0.78 0.62 95 1012.7
20260904033104 45 135 0.0 1.0 0.06 0.76 0.60 95 1012.5